Temp_Advection
nan nan nan nan nan nan nan nan nan nan nan nan nan nan nan nan nan nan nan nan nan nan nan nan nan nan nan nan nan nan nan nan nan nan nan nan nan nan nan nan nan nan nan nan nan
nan -0 -0 -0 0 0 0 -0 -0 -0 -0 -0 0 0 -0 -0 -0 -0 0 0 -0 0 0 -0 -0 -0 -0 0 -0 -0 -0 -1 -1 0 -0 -0 0 -0 -1 -1 -0 -0 0 1 nan
nan -0 -1 -1 -0 -0 -0 -0 -0 -0 -0 -1 -0 -0 -0 -0 0 -0 -0 0 0 0 0 -0 -0 -0 -0 -0 -0 0 -0 -1 -1 -1 -1 -1 -1 -1 -1 -1 -1 -0 -0 1 nan
nan -0 -0 -0 0 0 -0 -1 -0 -0 -0 -0 -0 -0 -0 0 0 -0 0 -0 -0 -0 0 0 0 -0 0 0 0 -0 -1 -1 -2 -0 -1 -1 -2 -2 -3 -1 -0 -1 -1 0 nan
nan -0 0 0 0 1 1 0 -0 -0 -0 -0 0 0 0 -0 0 0 0 -0 -0 -0 0 0 -0 -0 0 -0 -0 -1 0 0 -0 -1 -0 0 -0 -1 -3 -2 -1 -0 -1 -1 nan
nan -0 -0 -0 -0 0 0 0 0 0 -0 -0 0 0 0 0 0 -0 0 0 0 0 0 -0 -0 -0 -0 0 -0 -0 -0 -0 -1 -0 -0 0 0 -1 -1 -1 -2 -1 -0 -0 nan
nan -0 -0 -0 -0 -0 0 0 0 0 -0 0 -0 -0 0 0 0 -0 -0 -0 -0 -0 0 0 0 0 -0 -0 -0 -0 -1 -1 -0 0 1 -0 -1 -0 0 0 -1 -3 -2 0 nan
nan -0 -0 -1 -0 -0 0 0 0 0 -0 0 0 -0 -0 0 0 -0 -0 -0 -0 -0 -0 -0 0 0 0 -0 -0 -0 -0 -1 -1 0 0 0 -1 -0 1 0 -1 -2 -2 -0 nan
nan -1 -0 -1 -1 -0 0 0 -0 0 -0 -0 0 -0 -0 -0 -0 -0 -0 0 -0 -0 -0 -0 0 -0 -0 -0 -0 -0 -0 -0 -1 -0 1 0 -1 -1 0 0 -0 -0 -0 -1 nan
nan -0 -0 -0 -1 -0 -0 -0 -0 -0 -0 0 0 0 -0 0 0 -0 -0 0 -0 -0 -0 -0 -0 0 -0 -0 -0 0 -0 -0 -1 -1 0 1 -0 -1 1 0 -0 -0 -0 0 nan
nan -0 -0 0 -0 -1 -0 -0 -0 -0 -0 -0 -0 -0 0 0 -0 -0 -0 -0 0 -0 0 0 -0 0 0 0 -0 0 0 -1 -1 0 0 -0 -1 -1 0 0 -0 -1 -0 0 nan
nan 0 -0 0 0 -0 -1 -1 -1 -0 -0 0 0 0 0 -0 0 0 0 -0 -0 0 -0 -0 -0 -0 0 -0 -0 0 0 -0 -1 -0 0 0 -0 -1 -0 -0 -0 -0 -0 -0 nan
nan -0 -0 -0 -0 -0 -1 -1 -0 0 -0 0 0 0 -0 -0 -0 0 0 0 -0 0 -0 -0 -0 0 -0 -0 -0 -0 0 -0 -0 -1 -0 -0 -0 -0 -0 -1 -1 -0 0 0 nan
nan -0 -0 -0 -0 -0 -1 -0 0 0 -0 -0 -0 0 0 -0 -0 0 -0 -0 -0 -0 -0 -0 0 0 -0 -0 -0 -0 -0 0 -0 -0 -1 0 -0 -0 -0 -1 -1 -1 -1 -1 nan
nan -0 -0 -0 -0 -0 0 0 0 0 -0 -0 -0 0 0 -0 -0 -0 0 0 -0 0 -0 -0 0 0 -0 -0 -0 -0 -0 0 -0 -0 -0 -0 -0 -0 -0 -1 -0 -0 -1 -1 nan
nan -0 -0 -0 -0 -0 0 0 0 -0 -0 -0 -0 0 0 0 -0 -0 0 -0 -0 -0 -0 0 0 -0 -0 -0 -0 -0 -0 -0 0 0 0 0 -0 -0 -0 -0 -0 -0 -0 -0 nan
nan -0 0 -0 -0 -0 0 0 -0 -0 -0 0 0 -0 -0 -0 -0 -0 -0 -0 0 0 -0 -0 0 0 0 -0 0 -0 0 -0 0 -0 -0 -0 -0 0 0 0 -0 -0 -0 -0 nan
nan 0 -0 -0 -0 -0 -0 -0 0 -0 0 -0 -0 -0 -0 -0 0 -0 -0 0 0 0 -0 -0 -0 0 0 -0 -0 -0 0 0 -0 -0 -1 -0 -0 -0 0 0 0 0 -0 -0 nan
nan 0 -0 -0 -0 -0 0 0 -0 0 -0 -0 -0 0 0 -0 -0 -0 -0 -0 0 0 0 -0 -0 0 0 -0 -0 -0 0 -0 -0 0 -0 -0 -0 -0 -0 0 -0 0 -0 -1 nan
nan 0 0 -0 -0 -0 0 -0 0 -0 0 -0 -0 0 0 0 0 -0 -0 0 0 0 0 0 -0 -0 -0 0 -0 -0 -0 0 0 -0 -1 -0 -0 -0 -0 -0 -1 -0 -0 -0 nan
nan 0 0 -0 -0 0 0 0 0 0 0 -0 -0 0 0 0 0 -0 -0 0 0 0 -0 -0 -0 0 -0 -0 0 0 0 0 0 -0 -0 -1 -1 -0 0 -0 -0 -0 -0 -0 nan
nan 0 0 -0 0 0 0 0 -0 -0 -0 -0 -0 -0 0 0 0 -0 -0 0 0 0 0 0 0 -0 -0 0 0 0 0 0 0 0 0 -0 -1 -1 0 0 0 0 0 0 nan
nan 0 -0 -0 0 -0 0 0 -0 -0 -0 0 -0 0 0 0 0 -0 -0 0 0 0 0 0 0 -0 -0 -0 0 0 0 0 0 -0 -0 -0 -1 0 0 0 0 0 0 0 nan
nan 0 0 -0 0 0 0 0 0 0 -0 0 0 0 0 -0 -0 0 -0 -0 -0 0 0 0 0 -0 -1 0 -0 0 -0 -0 0 -0 -1 -0 -1 -1 -0 0 0 0 0 0 nan
nan 0 -0 0 0 0 0 0 -0 -0 0 0 -0 -0 -0 0 -0 -0 -0 0 0 0 1 0 -0 -0 -0 -0 0 0 0 0 0 -0 -1 -2 -1 -1 -0 0 0 0 -0 -0 nan
nan 0 0 0 0 0 -0 -0 -0 0 0 -0 -1 -0 1 -0 -0 0 0 0 -0 0 0 0 -1 -0 -0 -1 1 1 -0 0 -0 -1 -1 0 -1 -1 0 0 0 0 0 -0 nan
nan nan nan nan nan nan nan nan nan nan nan nan nan nan nan nan nan nan nan nan nan nan nan nan nan nan nan nan nan nan nan nan nan nan nan nan nan nan nan nan nan nan nan nan nan
Wind_Speed
25 25 24 24 24 25 25 26 26 27 27 27 27 26 24 22 19 17 20 18 16 15 4 3 3 1 1 4 7 7 8 14 20 21 24 24 26 29 26 33 27 22 25 32 19
25 25 24 25 24 24 22 21 20 21 21 21 20 20 19 18 14 16 14 12 10 5 4 3 3 2 4 4 5 8 12 19 19 22 25 30 30 30 31 32 33 24 29 20 17
27 26 26 26 25 25 23 21 20 19 18 16 15 9 8 7 8 4 8 10 8 6 7 5 4 5 7 9 8 7 13 20 25 30 31 31 32 34 29 31 34 33 32 22 14
27 27 28 27 26 25 23 21 18 16 17 15 11 6 4 2 1 6 5 4 8 9 6 4 1 3 4 6 5 9 16 24 33 29 26 22 32 33 39 40 35 37 32 31 22
27 28 29 29 27 26 21 16 16 14 16 13 5 3 4 3 3 5 5 11 12 10 12 4 5 4 5 3 10 17 18 13 17 26 27 26 25 28 38 43 41 37 31 38 31
27 28 29 29 28 25 18 14 14 14 17 7 2 5 5 3 2 4 7 10 11 7 3 5 5 5 8 8 8 11 17 25 30 32 30 27 24 35 42 33 39 39 39 29 27
28 29 29 29 29 23 16 13 13 13 6 7 6 9 6 5 2 6 6 3 4 3 1 3 4 4 0 5 6 14 17 20 20 17 15 14 20 16 30 17 18 34 33 36 38
28 29 29 30 27 19 16 14 10 5 6 8 10 8 5 3 5 3 3 3 4 3 3 2 2 3 3 4 7 9 8 9 11 13 12 10 18 16 12 13 19 20 25 34 33
27 29 29 27 21 20 17 11 6 7 7 11 9 5 5 5 2 3 2 1 2 2 3 4 1 1 1 5 6 5 9 17 17 18 10 4 20 16 25 25 21 19 23 22 26
27 28 28 24 19 20 17 5 8 12 8 8 9 6 3 2 2 3 2 1 3 3 2 1 2 1 1 1 6 14 16 13 18 14 17 21 22 21 21 21 22 22 21 27 29
26 25 25 23 18 21 17 1 2 1 11 5 2 3 3 4 4 2 3 3 3 2 2 1 4 3 4 4 11 13 14 15 18 18 17 19 24 23 20 19 19 24 22 23 25
26 24 24 22 15 19 14 8 8 2 2 4 4 4 4 4 1 1 3 2 1 1 1 4 6 2 4 6 12 11 13 15 15 13 16 19 25 19 14 15 18 14 17 17 21
24 23 21 21 10 18 17 13 7 3 2 0 1 0 2 3 1 1 1 2 2 3 4 8 5 4 6 10 13 13 12 14 16 22 19 13 10 13 13 17 20 18 12 11 12
24 22 20 19 6 13 12 9 4 2 2 3 2 1 1 3 2 3 3 2 3 4 6 7 2 5 10 12 9 14 5 11 16 14 10 12 7 5 12 15 17 21 22 21 21
25 19 20 16 7 8 7 8 4 2 1 4 2 1 3 3 5 2 3 2 7 6 4 3 8 10 11 7 6 8 10 12 13 13 12 5 5 5 9 14 14 15 21 23 24
25 20 18 15 6 11 13 10 3 1 1 3 1 1 4 1 1 2 2 5 5 6 7 15 7 5 3 8 8 9 9 13 7 5 5 3 4 7 6 11 14 15 20 23 26
24 20 21 11 9 10 15 2 1 1 1 2 1 2 4 2 1 1 2 4 4 4 3 7 5 2 3 7 5 5 8 5 3 4 8 1 9 12 2 8 12 17 24 25 24
22 19 19 8 10 10 11 1 0 2 2 2 2 4 3 2 1 3 5 5 2 5 4 4 3 3 1 3 6 8 4 4 6 8 12 13 8 3 2 5 10 17 23 27 26
22 21 10 4 10 9 3 1 1 1 1 4 3 3 2 2 3 4 3 4 1 4 3 3 5 2 5 3 3 3 5 2 6 7 7 5 6 9 7 8 13 23 28 27 28
21 17 3 5 14 6 1 1 1 0 1 2 3 1 2 1 4 2 3 2 2 3 2 1 7 4 2 4 6 7 3 4 3 4 8 6 10 10 10 11 15 19 25 27 27
17 7 3 11 9 3 1 2 3 2 4 4 3 3 4 3 2 3 3 3 4 4 3 3 4 2 4 6 8 5 7 2 2 4 6 9 6 9 13 6 12 16 24 25 24
8 3 8 8 1 2 1 2 2 3 4 5 3 5 5 4 4 5 6 5 2 3 4 4 2 7 11 2 3 5 4 5 7 5 5 5 11 12 2 7 15 17 22 18 20
7 5 5 3 1 1 1 3 5 4 4 4 5 8 4 5 4 8 6 3 5 5 3 4 4 5 4 3 3 6 8 4 1 2 15 11 11 9 9 17 18 19 17 15 20
3 2 2 4 2 0 1 2 3 5 6 6 4 5 5 7 10 4 6 4 4 8 9 6 7 11 13 14 1 4 6 12 10 7 14 18 23 27 18 17 16 12 13 15 18
5 3 2 2 4 4 3 2 3 4 5 7 3 11 7 5 6 10 12 12 12 11 14 4 10 13 18 22 14 15 14 14 15 21 15 25 24 22 20 17 14 15 16 17 19
7 5 4 1 2 7 6 5 7 5 4 5 10 7 10 10 11 13 8 5 7 3 4 4 11 14 14 19 17 20 21 23 21 24 22 25 27 22 20 12 12 13 14 17 18
14 11 6 6 5 5 6 7 9 6 11 15 9 9 11 14 20 21 22 21 17 8 6 5 5 6 17 13 9 14 20 24 23 19 16 16 19 16 11 11 11 12 16 18 20
Wind_Direction
341 337 333 327 321 308 300 295 296 295 294 292 286 281 288 292 298 299 293 284 281 297 264 325 340 286 284 236 220 228 246 262 265 265 275 273 273 264 268 273 263 263 263 266 279
344 339 335 330 325 320 315 313 311 309 304 297 294 290 288 287 300 306 311 268 263 277 265 321 321 279 260 249 225 227 252 271 280 278 279 278 272 270 271 265 262 268 258 265 266
342 340 336 332 328 324 321 317 316 315 318 319 314 299 283 302 308 22 31 90 178 256 238 270 295 264 256 252 235 239 260 289 288 288 287 286 279 273 270 264 266 262 263 261 253
342 340 339 336 333 326 318 316 316 320 318 318 312 302 276 170 309 156 129 16 337 331 226 306 246 231 224 223 231 288 271 280 291 295 305 297 288 282 272 266 268 271 263 258 260
346 343 341 338 335 329 319 319 317 319 319 318 319 257 106 172 156 197 256 290 311 286 284 253 250 240 249 296 299 265 283 305 293 290 285 286 282 287 279 270 267 266 275 254 254
350 347 344 342 338 335 333 325 323 322 327 350 275 200 149 156 177 267 291 302 309 313 274 265 241 253 281 262 272 304 294 289 285 283 283 278 288 270 258 269 268 259 253 254 251
352 349 346 345 343 341 341 334 329 334 17 54 70 134 131 105 205 301 312 349 54 32 163 273 207 222 58 279 289 284 291 294 288 297 280 327 289 282 280 289 293 260 255 251 253
352 350 346 346 348 350 347 338 339 33 29 118 114 114 93 114 110 39 45 81 12 45 105 359 170 252 238 287 289 301 284 304 312 336 320 332 289 299 303 310 293 284 272 247 253
353 350 347 350 2 5 358 352 63 34 95 101 120 126 96 123 4 344 80 92 142 91 74 74 122 328 238 317 298 183 309 313 314 312 300 280 288 289 284 286 263 265 261 271 254
354 350 349 351 358 3 4 44 110 56 107 91 95 126 76 330 13 49 27 133 185 179 195 82 89 14 262 270 322 317 312 311 310 317 317 301 292 297 298 286 279 271 254 255 250
353 353 351 348 351 1 10 52 47 30 51 55 39 78 59 51 62 46 46 120 127 175 353 41 263 306 4 257 290 300 296 299 304 318 309 300 299 304 306 291 279 281 270 272 249
352 355 354 348 351 2 15 74 71 48 347 40 65 77 65 28 199 44 56 194 210 28 334 242 262 334 299 288 304 303 301 306 310 309 316 307 306 319 353 359 353 347 312 302 298
352 351 354 349 356 2 33 65 76 32 274 322 15 84 44 10 295 334 174 145 257 242 271 295 305 291 278 299 304 304 294 300 310 317 304 325 298 13 20 32 17 15 355 337 312
355 349 359 357 5 7 34 41 47 50 233 161 187 190 342 337 218 277 210 255 227 299 309 281 238 265 301 297 294 299 344 302 307 318 318 324 301 329 9 20 22 11 7 2 2
352 351 351 4 1 15 352 341 321 117 258 136 153 272 297 277 327 144 215 184 271 283 265 305 286 299 298 306 300 286 323 300 300 292 298 296 257 289 352 3 4 11 8 2 358
349 347 345 352 353 1 342 338 120 207 264 164 142 342 322 208 226 313 226 223 275 277 244 270 283 277 278 288 281 307 298 288 276 279 253 249 327 290 0 349 352 1 359 357 1
346 342 341 348 343 339 348 49 295 222 127 151 290 352 315 279 285 301 278 255 275 288 272 297 255 254 258 278 214 276 307 301 252 253 279 251 296 277 345 2 352 350 354 354 352
345 339 335 337 350 343 354 247 96 41 294 13 276 280 275 349 133 306 275 287 192 243 288 318 255 200 132 284 305 305 273 279 286 295 299 302 264 319 229 292 340 345 349 350 349
343 335 332 344 354 343 359 41 301 303 14 322 272 267 163 169 308 316 260 295 278 202 254 260 250 242 245 273 269 115 233 343 285 257 268 257 268 261 229 279 337 344 347 348 342
336 331 297 326 339 346 103 271 279 349 144 240 255 226 264 251 303 334 286 145 222 210 190 272 283 253 297 256 214 255 113 237 202 269 271 262 271 272 312 334 341 336 337 341 338
331 324 272 331 347 80 107 263 286 247 214 227 260 261 240 276 233 244 263 214 216 164 173 174 231 226 268 227 277 209 228 214 299 271 282 287 276 307 326 344 325 322 330 334 336
323 308 298 329 13 52 173 216 302 242 221 234 252 246 236 198 229 235 245 236 174 186 230 197 253 268 276 189 276 262 256 240 241 205 238 286 276 307 242 310 325 315 324 334 339
302 279 304 344 227 195 186 251 255 219 221 196 232 223 209 219 249 224 246 245 235 236 236 186 216 282 246 182 177 216 202 199 140 253 261 283 272 163 269 328 310 307 313 330 332
293 290 309 48 84 203 317 259 259 234 249 221 246 205 202 241 225 256 241 263 223 228 242 207 224 234 263 285 86 224 212 214 219 256 272 262 269 283 302 317 317 309 307 326 321
204 234 236 251 212 196 168 192 256 270 229 222 237 224 224 248 242 239 258 263 263 257 239 232 257 242 251 266 255 254 247 225 223 246 254 270 285 287 301 306 301 309 302 313 319
209 184 194 226 192 193 200 219 231 229 226 230 241 245 232 238 249 273 256 232 241 203 217 215 261 270 261 263 261 252 250 248 241 252 256 259 269 280 285 276 284 301 310 311 322
222 202 176 204 178 181 218 217 218 184 239 238 244 261 255 257 276 280 274 267 259 240 230 230 247 255 272 277 279 260 252 250 251 249 242 246 250 253 263 266 283 297 308 309 316
Height
1525 1521 1517 1514 1510 1507 1505 1502 1500 1498 1496 1494 1492 1491 1491 1490 1490 1489 1489 1489 1489 1489 1488 1489 1490 1490 1489 1490 1491 1490 1487 1473 1473 1472 1463 1466 1463 1463 1459 1453 1452 1452 1447 1449 1446
1523 1518 1514 1510 1506 1503 1500 1497 1494 1492 1490 1488 1486 1485 1485 1486 1487 1487 1485 1482 1484 1487 1488 1489 1490 1490 1489 1489 1488 1487 1475 1466 1466 1465 1460 1460 1458 1458 1456 1450 1447 1447 1447 1447 1445
1520 1515 1511 1506 1502 1499 1495 1493 1490 1488 1485 1483 1482 1482 1482 1484 1486 1487 1484 1480 1484 1486 1486 1487 1488 1489 1488 1486 1484 1479 1473 1469 1467 1466 1465 1460 1457 1456 1452 1441 1447 1442 1443 1442 1442
1517 1513 1508 1503 1498 1494 1490 1488 1486 1484 1482 1479 1479 1479 1480 1482 1483 1483 1484 1484 1484 1485 1486 1486 1487 1488 1487 1484 1482 1481 1474 1472 1468 1467 1466 1462 1459 1455 1447 1438 1444 1441 1438 1438 1438
1515 1510 1504 1499 1494 1490 1486 1484 1483 1480 1478 1476 1476 1477 1479 1482 1483 1483 1484 1484 1484 1484 1484 1485 1486 1485 1483 1483 1483 1479 1473 1472 1468 1466 1463 1460 1458 1454 1444 1439 1440 1437 1434 1431 1433
1513 1507 1501 1496 1491 1486 1483 1481 1480 1478 1475 1474 1473 1475 1479 1481 1482 1482 1482 1482 1482 1482 1482 1483 1483 1483 1481 1481 1481 1476 1474 1470 1464 1458 1455 1453 1448 1446 1431 1434 1431 1429 1427 1427 1426
1510 1504 1498 1493 1488 1483 1481 1479 1478 1476 1473 1472 1472 1475 1478 1481 1480 1481 1481 1481 1481 1481 1481 1480 1481 1482 1483 1481 1479 1475 1471 1462 1453 1449 1448 1450 1440 1431 1425 1429 1428 1423 1419 1418 1422
1508 1502 1496 1491 1486 1482 1479 1477 1476 1475 1473 1473 1474 1476 1479 1480 1480 1481 1481 1481 1480 1480 1480 1479 1480 1480 1482 1481 1475 1471 1464 1457 1445 1449 1447 1451 1433 1423 1425 1427 1425 1418 1413 1410 1412
1507 1501 1495 1490 1486 1482 1479 1476 1475 1475 1474 1474 1476 1476 1481 1480 1481 1480 1480 1481 1480 1480 1480 1480 1480 1480 1481 1477 1467 1464 1463 1454 1450 1446 1446 1449 1432 1424 1424 1418 1414 1412 1409 1407 1405
1505 1500 1494 1489 1486 1482 1479 1477 1477 1476 1476 1476 1477 1481 1481 1482 1479 1478 1478 1479 1480 1480 1481 1480 1480 1479 1477 1475 1460 1462 1462 1457 1453 1443 1442 1435 1426 1417 1414 1412 1408 1404 1402 1400 1401
1504 1499 1493 1489 1485 1482 1479 1477 1481 1480 1477 1480 1481 1480 1480 1479 1478 1479 1477 1478 1479 1479 1474 1478 1473 1464 1468 1472 1470 1467 1464 1459 1447 1443 1442 1434 1424 1414 1409 1406 1406 1402 1397 1395 1393
1502 1498 1493 1489 1485 1482 1480 1478 1481 1484 1483 1481 1480 1480 1479 1478 1479 1478 1478 1480 1477 1474 1477 1474 1465 1467 1470 1469 1464 1460 1457 1451 1446 1443 1440 1428 1417 1410 1405 1405 1403 1403 1401 1396 1395
1500 1496 1493 1489 1485 1483 1479 1481 1482 1483 1484 1482 1480 1479 1479 1479 1478 1478 1478 1478 1476 1475 1473 1470 1465 1469 1468 1463 1460 1452 1453 1450 1450 1441 1433 1427 1410 1409 1409 1406 1406 1401 1396 1392 1392
1499 1494 1492 1488 1488 1484 1482 1482 1482 1482 1478 1479 1479 1479 1479 1477 1478 1477 1477 1480 1476 1472 1471 1468 1467 1467 1464 1461 1460 1453 1452 1453 1449 1445 1435 1430 1425 1408 1406 1408 1410 1408 1403 1398 1395
1497 1494 1490 1487 1487 1485 1485 1482 1481 1483 1464 1480 1479 1479 1478 1479 1478 1477 1476 1477 1473 1471 1475 1461 1464 1463 1461 1459 1459 1453 1454 1452 1449 1442 1436 1423 1428 1408 1404 1408 1410 1410 1406 1400 1396
1496 1492 1489 1486 1485 1484 1481 1479 1480 1479 1464 1475 1478 1478 1476 1477 1476 1475 1476 1476 1474 1471 1469 1464 1466 1464 1460 1460 1458 1456 1452 1445 1445 1439 1434 1430 1429 1406 1412 1415 1411 1410 1407 1402 1397
1494 1490 1487 1484 1484 1481 1479 1479 1476 1465 1479 1475 1475 1477 1478 1474 1474 1474 1472 1470 1467 1468 1462 1460 1458 1461 1462 1457 1456 1455 1449 1446 1442 1437 1430 1429 1426 1406 1418 1417 1415 1410 1406 1403 1400
1493 1489 1485 1482 1481 1480 1479 1479 1470 1473 1470 1480 1478 1476 1472 1475 1474 1475 1470 1465 1470 1470 1467 1463 1450 1458 1461 1458 1456 1452 1454 1453 1450 1435 1428 1427 1420 1403 1416 1418 1415 1412 1409 1403 1401
1491 1486 1482 1481 1480 1479 1480 1472 1469 1473 1481 1478 1474 1471 1471 1475 1476 1474 1470 1468 1469 1470 1471 1470 1460 1460 1461 1460 1460 1453 1452 1456 1452 1442 1445 1422 1415 1411 1412 1411 1411 1408 1406 1405 1401
1488 1483 1481 1480 1479 1478 1480 1475 1476 1481 1482 1481 1473 1474 1473 1472 1474 1477 1469 1468 1468 1470 1472 1469 1467 1459 1459 1460 1458 1454 1454 1452 1454 1452 1436 1415 1417 1409 1405 1410 1413 1413 1410 1406 1402
1487 1482 1480 1479 1477 1478 1474 1478 1480 1481 1482 1480 1474 1473 1472 1475 1478 1473 1468 1467 1467 1469 1471 1472 1471 1455 1459 1451 1447 1452 1449 1456 1457 1454 1435 1428 1412 1402 1411 1419 1417 1414 1411 1407 1402
1485 1484 1478 1478 1481 1482 1479 1481 1482 1479 1480 1479 1478 1474 1472 1473 1476 1474 1466 1465 1466 1466 1465 1465 1467 1459 1451 1453 1458 1456 1454 1453 1447 1450 1445 1445 1430 1411 1414 1417 1417 1413 1410 1406 1402
1482 1481 1478 1476 1474 1477 1481 1481 1480 1476 1475 1475 1473 1472 1472 1472 1473 1467 1466 1464 1465 1466 1464 1467 1464 1456 1444 1454 1456 1453 1450 1454 1455 1453 1439 1439 1416 1412 1409 1412 1414 1411 1409 1405 1402
1481 1479 1478 1477 1478 1478 1479 1478 1476 1474 1473 1472 1470 1471 1472 1470 1468 1465 1465 1462 1462 1462 1462 1464 1460 1452 1443 1436 1446 1452 1451 1445 1445 1442 1426 1418 1413 1403 1408 1410 1409 1407 1407 1404 1403
1479 1477 1475 1474 1475 1478 1480 1479 1474 1473 1473 1471 1469 1467 1466 1467 1464 1462 1459 1458 1458 1457 1458 1460 1448 1445 1443 1438 1440 1442 1440 1441 1444 1434 1435 1411 1408 1405 1408 1409 1408 1407 1405 1403 1400
1473 1474 1475 1473 1475 1477 1478 1472 1468 1468 1471 1467 1466 1461 1463 1463 1457 1457 1458 1457 1455 1454 1455 1455 1444 1440 1437 1431 1430 1434 1431 1428 1431 1426 1422 1416 1412 1407 1407 1407 1407 1404 1403 1401 1397
1465 1466 1468 1469 1471 1473 1465 1460 1461 1466 1462 1460 1461 1461 1459 1457 1456 1453 1452 1452 1450 1450 1452 1450 1444 1440 1429 1422 1427 1424 1414 1412 1411 1412 1417 1416 1401 1404 1404 1403 1403 1402 1401 1398 1395